Weather History for Nenana, AK

Change the Weather History Date:

Saturday, March 9, 2013

  Actual Average Record
Temperature  
Mean Temperature 30 °F -  
Max Temperature 43 °F 18 °F 59 °F (1965)
Min Temperature 17 °F -10 °F -26 °F (2006)
Degree Days  
Heating Degree Days 35    
Moisture  
Dew Point 20 °F    
Average Humidity 83    
Maximum Humidity 93    
Minimum Humidity 63    
Precipitation  
Precipitation 0.12 in - - ()
Sea Level Pressure  
Sea Level Pressure 29.90 in    
Wind  
Wind Speed 5 mph (West)    
Max Wind Speed 15 mph    
Max Gust Speed 20 mph    
Visibility 5 miles    
Events Fog , Rain , Snow    
Averages and records for this station are not official NWS values.
T = Trace of Precipitation, MM = Missing Value Source: NWS Daily Summary

Daily Weather History Graph

Daily Weather History Graph

Search for Another Location

Airport:

Trip Planner

Search our weather history database for the weather conditions in past years. The results will help you decide how hot, cold, wet, or windy it might be!

Date:

Astronomy

Mar. 09, 2013 Rise Set
Actual Time 7:34 AM AKST 6:40 PM AKST
Civil Twilight 6:46 AM AKST 7:28 PM AKST
Nautical Twilight 5:50 AM AKST 8:25 PM AKST
Astronomical Twilight 4:49 AM AKST 9:26 PM AKST
Moon 6:38 AM AKST (3/9) 4:27 PM AKST (3/9)
Length of Visible Light 12h 41m
Length of Day
11h 05m
Waning Crescent, 5% of the Moon is Illuminated
Mar 9
Waning Crescent
Mar 11
New
Mar 19
First Quarter
Mar 27
Full
Apr 2
Last Quarter

Hourly Weather History & Observations

Time (AKST) Temp. Windchill Dew Point Humidity Pressure Visibility Wind Dir Wind Speed Gust Speed Precip Events Conditions
12:53 AM 14.0 °F 5.1 °F 6.1 °F 71% 29.69 in 10.0 mi Variable 5.8 mph - N/A   Clear
1:53 AM 15.1 °F 5.2 °F 6.1 °F 68% 29.72 in 10.0 mi WNW 6.9 mph - N/A   Clear
3:19 AM 19.4 °F 9.5 °F 8.6 °F 63% 29.72 in 1.5 mi NNW 8.1 mph - 0.00 in Snow Light Snow
3:23 AM 17.6 °F 6.4 °F 10.4 °F 73% 29.73 in 0.5 mi West 9.2 mph - 0.00 in Snow Snow
3:31 AM 17.6 °F 8.2 °F 14.0 °F 86% 29.73 in 0.2 mi West 6.9 mph - 0.03 in Fog , Snow Heavy Snow
3:53 AM 18.0 °F 8.7 °F 15.1 °F 88% 29.77 in 0.8 mi NNW 6.9 mph - 0.06 in Snow Light Snow
3:57 AM 17.6 °F 7.3 °F 14.0 °F 86% 29.74 in 1.0 mi NW 8.1 mph - 0.00 in Snow Light Snow
4:25 AM 19.4 °F - 15.8 °F 86% 29.74 in 1.0 mi Calm Calm - 0.01 in Snow Light Snow
4:53 AM 19.0 °F 13.9 °F 16.0 °F 88% 29.78 in 1.8 mi ESE 3.5 mph - 0.02 in Snow Light Snow
5:11 AM 19.4 °F 11.5 °F 15.8 °F 86% 29.76 in 1.5 mi SSE 5.8 mph - 0.01 in Snow Light Snow
5:23 AM 19.4 °F 12.8 °F 17.6 °F 93% 29.76 in 0.5 mi SSE 4.6 mph - 0.03 in Fog , Snow Snow
5:42 AM 19.4 °F - 15.8 °F 86% 29.78 in 1.0 mi Calm Calm - 0.05 in Snow Light Snow
5:53 AM 19.9 °F - 16.0 °F 85% 29.80 in 1.8 mi Calm Calm - 0.05 in Snow Light Snow
6:01 AM 19.4 °F - 15.8 °F 86% 29.77 in 3.0 mi Calm Calm - 0.00 in Snow Light Snow
6:13 AM 19.4 °F 7.9 °F 15.8 °F 86% 29.75 in 6.0 mi ESE 10.4 mph - 0.00 in Snow Light Snow
6:43 AM 19.4 °F 12.8 °F 17.6 °F 93% 29.76 in 10.0 mi Variable 4.6 mph - 0.00 in   Overcast
6:53 AM 21.9 °F 15.7 °F 19.0 °F 89% 29.80 in 10.0 mi NW 4.6 mph - 0.00 in   Overcast
7:13 AM 21.2 °F 12.6 °F 19.4 °F 93% 29.76 in 10.0 mi NW 6.9 mph - N/A   Overcast
7:53 AM 19.9 °F 14.9 °F 18.0 °F 92% 29.80 in 10.0 mi West 3.5 mph - N/A   Mostly Cloudy
8:53 AM 17.1 °F 8.7 °F 14.0 °F 88% 29.81 in 10.0 mi NW 5.8 mph - N/A   Clear
9:53 AM 18.0 °F 11.1 °F 12.0 °F 78% 29.83 in 10.0 mi WNW 4.6 mph - N/A   Overcast
10:53 AM 21.9 °F 17.2 °F 15.1 °F 75% 29.85 in 10.0 mi Variable 3.5 mph - N/A   Partly Cloudy
11:53 AM 25.0 °F - 17.1 °F 72% 29.86 in 10.0 mi Calm Calm - N/A   Overcast
12:53 PM 26.1 °F 21.9 °F 18.0 °F 71% 29.87 in 10.0 mi NW 3.5 mph - N/A   Mostly Cloudy
1:53 PM 28.0 °F - 19.9 °F 72% 29.88 in 10.0 mi Calm Calm - N/A   Overcast
2:53 PM 28.9 °F 25.2 °F 19.9 °F 69% 29.88 in 10.0 mi NNW 3.5 mph - N/A   Overcast
3:53 PM 30.9 °F 27.5 °F 19.9 °F 64% 29.89 in 10.0 mi WNW 3.5 mph - N/A   Clear
4:53 PM 30.9 °F - 21.0 °F 67% 29.91 in 10.0 mi Calm Calm - N/A   Overcast
5:53 PM 30.0 °F - 19.0 °F 64% 29.92 in 10.0 mi Calm Calm - N/A   Overcast
6:53 PM 28.0 °F - 19.9 °F 72% 29.94 in 10.0 mi Calm Calm - N/A   Overcast
7:53 PM 27.0 °F - 21.0 °F 78% 29.97 in 10.0 mi Calm Calm - N/A   Overcast
8:30 PM 28.4 °F 24.6 °F 24.8 °F 86% 29.95 in 2.5 mi WNW 3.5 mph - 0.00 in Snow Light Snow
8:50 PM 28.4 °F 23.3 °F 26.6 °F 93% 29.96 in 3.0 mi Variable 4.6 mph - 0.00 in Snow Light Snow
8:51 PM 28.9 °F 23.9 °F 26.1 °F 89% 29.99 in 3.0 mi Variable 4.6 mph - 0.00 in Snow Light Snow
9:02 PM 28.4 °F - 24.8 °F 86% 29.96 in 2.5 mi Calm Calm - 0.01 in Snow Light Snow
9:04 PM 28.4 °F 24.6 °F 24.8 °F 86% 29.96 in 1.8 mi WNW 3.5 mph - 0.01 in Snow Light Snow
9:12 PM 28.4 °F 24.6 °F 24.8 °F 86% 29.96 in 1.0 mi WNW 3.5 mph - 0.01 in Snow Light Snow
9:38 PM 28.4 °F 23.3 °F 26.6 °F 93% 29.98 in 0.8 mi Variable 4.6 mph - 0.02 in Snow Light Snow
9:46 PM 28.4 °F - 26.6 °F 93% 29.98 in 1.0 mi Calm Calm - 0.02 in Snow Light Snow
9:53 PM 28.0 °F 24.2 °F 26.1 °F 92% 30.01 in 0.8 mi West 3.5 mph - 0.03 in Snow Light Snow
10:20 PM 28.4 °F 22.2 °F 24.8 °F 86% 29.99 in 1.5 mi Variable 5.8 mph - 0.02 in Snow Light Snow
10:36 PM 28.4 °F 20.4 °F 24.8 °F 86% 30.00 in 1.2 mi WSW 8.1 mph - 0.02 in Snow Light Snow
10:50 PM 26.6 °F 18.2 °F 24.8 °F 93% 30.00 in 3.0 mi WSW 8.1 mph - 0.03 in Snow Light Snow
10:53 PM 27.0 °F 19.5 °F 24.1 °F 89% 30.04 in 2.5 mi Variable 6.9 mph - 0.03 in Snow Light Snow
10:59 PM 26.6 °F 20.0 °F 24.8 °F 93% 30.00 in 3.0 mi WSW 5.8 mph - 0.00 in Snow Light Snow
11:12 PM 26.6 °F 20.0 °F 24.8 °F 93% 30.01 in 2.5 mi WSW 5.8 mph - 0.00 in Snow Light Snow
11:17 PM 26.6 °F 18.2 °F 23.0 °F 86% 30.01 in 4.0 mi WSW 8.1 mph 19.6 mph 0.00 in Snow Light Snow
11:28 PM 26.6 °F 18.2 °F 23.0 °F 86% 30.01 in 5.0 mi WSW 8.1 mph - 0.00 in Snow Light Snow
11:34 PM 26.6 °F 18.2 °F 23.0 °F 86% 30.01 in 7.0 mi WSW 8.1 mph - 0.00 in Snow Light Snow
11:53 PM 27.0 °F 19.5 °F 21.9 °F 81% 30.06 in 9.0 mi Variable 6.9 mph - 0.00 in   Overcast